Starlink 6084

operational
NORAD ID: 56111 Int'l Des: 2023-046 Owner: SPXS Country: US Constellation: starlink
LEOCIRCULAR

关于 Starlink 6084

正在加载描述...

实时位置

正在加载3D地球...

即将过境

高度历史

Altitude vs Time

uPlot chart will show altitude changes over time

两行轨道根数

1 56111U 23046U 25351.10801603 -.00003110 00000-0 -21532-3 0 9997
2 56111 43.0040 247.3201 0001547 257.1858 102.8811 15.02523856149641
Epoch: Dec 17, 2025 • Age: 10 hours

当前状态

高度 561.7 km
速度 7.59 km/s
星下点 36.23°N, 96.79°E
发射日期 Mar 29, 2023
运行时间 2.7 years
类型 internet

技术详情

分类 Payload
质量 305.00 kg
干质量 290.00 kg
总质量 305.00 kg
长度 0.20 m
直径 2.80 m
跨度 9.00 m
形状 Box + pan
制造商 SPXS
平台类型 Starlink
阶段状态 In Orbit
所有者/国家 SPXS/US

大型星座

Loading constellations...